Weather in Novosyolki

Russia / Tver Oblast     55°50′55″N   31°48′41″E
temp.,
°C
wind,
m/s
gust,
m/s
humid.,
%
clouds,
%
prec.,
mm/h
press.,
hPa
HPBL,
m
28 november, sun
sun2800:00+3ssw51098100 1.1 994854
03:00+2sw51197100 1.7 996806
06:00+1sw41095100 0.2 998819
09:00+1sw41097100 0.3 1000737
12:00+1sw4992100 0.1 1002852
15:00+2sw3888100 0.1 1003606
18:000s2795100 0.0 1005220
21:00−1sse2495100 0.0 1005106
29 november, mon
mon2900:000ese2496100 0.1 1005149
03:000ene3999100 4.9 1002360
06:000ene3899100 6.1 1000318
09:00+1ene37100100 7.3 999220
12:00+2e37100100 0.2 997206
15:00+3ese39100100 0.4 994239
18:00+4ese41299100 0.1 991355
21:00+4ese41199100 0.2 988419
30 november, tue
tue3000:00+3e38100100 0.1 984331
03:00+3ene26100100 0.3 981204
06:00+2nne13100100 0.4 978121
09:00+2w15100100 0.8 977179
12:00+1wsw4998100 0.7 978577
15:00−2w51195100 1.9 980576
18:00−2w51295100 1.3 981814
21:00−4wnw61394100 2.5 983884
1 december, wed
wed100:00−4w61292100 0.7 986872
03:00−5w61189100 1.2 988874
06:00−6w51187100 0.1 990709
09:00−7w4118663 0.1 993611
12:00−6w410805 0.0 994668
15:00−6w488473 0.0 996640
18:00−7w28906 0.0 997307
21:00−8sw2596100 0.0 997108
2 december, thu
thu200:00−7s2694100 0.0 996199
03:00−4sse41088100 0.0 994485
06:00−3sse51595100 1.4 989666
09:00+1ssw51597100 3.9 987972
12:00+2sw61398100 0.5 9881002
15:00+2sw7148096 1.3 9891298
18:00+1sw81781100 0.1 9901443
21:00−3wsw71486100 0.2 995839